Location: Krakow
(50.0830°N, 19.9170°E)
Time: 17:52:38
(UTC+01:00)

A-11 Canister half - Visible Passes

Search period start: 11 December 2023 00:00
Search period end: 21 December 2023 00:00
Orbit: 1525 x 1683 km, 47.3° (Epoch: 09 December)

Date Brightness Start Highest point End Pass type
(mag) Time Alt. Az. Time Alt. Az. Time Alt. Az.
11 Dec 9.6 16:59:12 10° SW 17:08:42 48° SSE 17:16:09 18° E visible
11 Dec 9.0 19:03:02 10° WSW 19:13:12 75° S 19:14:26 68° ESE visible
11 Dec 10.3 21:08:01 10° W 21:12:43 32° W 21:12:43 32° W visible
12 Dec 9.7 16:37:33 10° SW 16:46:59 46° SSE 16:55:37 13° E visible
12 Dec 9.1 18:41:18 10° WSW 18:51:26 74° S 18:53:54 56° ESE visible
12 Dec 10.0 20:46:16 10° W 20:52:11 41° W 20:52:11 41° W visible
13 Dec 9.8 16:15:55 10° SSW 16:25:16 45° SE 16:34:40 10° ENE visible
13 Dec 9.1 18:19:32 10° WSW 18:29:39 73° S 18:33:21 45° E visible
13 Dec 9.6 20:24:29 10° W 20:31:39 51° WSW 20:31:39 51° WSW visible
13 Dec 11.3 22:29:39 10° WNW 22:29:56 11° WNW 22:29:56 11° WNW visible
14 Dec 9.2 17:57:47 10° WSW 18:07:54 73° SSE 18:12:49 36° E visible
14 Dec 9.3 20:02:42 10° W 20:11:06 62° WSW 20:11:06 62° WSW visible
14 Dec 11.0 22:07:51 10° WNW 22:09:24 15° W 22:09:24 15° W visible
15 Dec 9.2 17:36:03 10° WSW 17:46:08 72° SSE 17:52:17 28° E visible
15 Dec 9.1 19:40:56 10° W 19:50:34 72° SSW 19:50:34 72° SSW visible
15 Dec 10.8 21:46:04 10° WNW 21:48:51 20° W 21:48:51 20° W visible
16 Dec 9.3 17:14:19 10° WSW 17:24:22 71° SSE 17:31:45 21° E visible
16 Dec 9.0 19:19:10 10° W 19:29:19 74° S 19:30:03 72° SSE visible
16 Dec 10.5 21:24:16 10° WNW 21:28:20 26° W 21:28:20 26° W visible
17 Dec 9.3 16:52:35 10° WSW 17:02:36 70° SSE 17:11:15 16° E visible
17 Dec 9.1 18:57:23 10° W 19:07:33 75° S 19:09:33 61° SE visible
17 Dec 10.2 21:02:28 10° WNW 21:07:50 33° W 21:07:50 33° W visible
18 Dec 9.4 16:30:51 10° WSW 16:40:51 69° SSE 16:50:46 11° E visible
18 Dec 9.1 18:35:38 10° W 18:45:47 76° S 18:49:04 49° ESE visible
18 Dec 10.0 20:40:42 10° WNW 20:47:22 40° WSW 20:47:22 40° WSW visible
19 Dec 9.5 16:09:08 10° WSW 16:19:06 68° SSE 16:29:09 10° E visible
19 Dec 9.2 18:13:51 10° W 18:24:01 76° S 18:28:37 38° ESE visible
19 Dec 9.7 20:18:55 10° WNW 20:26:55 48° WSW 20:26:55 48° WSW visible
19 Dec 11.3 22:25:08 10° W 22:25:13 10° W 22:25:13 10° W visible
20 Dec 9.2 17:52:05 10° W 18:02:14 77° S 18:08:12 29° ESE visible
20 Dec 9.5 19:57:08 10° WNW 20:06:31 53° SW 20:06:31 53° SW visible
20 Dec 11.1 22:03:13 10° W 22:04:49 14° W 22:04:49 14° W visible
